Preview of NWS' New Version of Forecast
This preview is not operational and should not be used for support decisions.

Regional Weather Roundup (RWR)

Issued by National Weather Service (NWS)

                            
000
ASCA42 TJSJ 201010
RWRPR 
PUERTO RICO/U.S. VIRGIN ISLANDS HOURLY WEATHER ROUNDUP
NATIONAL WEATHER SERVICE SAN JUAN PR
600 AM AST WED FEB 20 2019

PRZ001>002-007>008-010-201100-
PUERTO RICO
  
CITY           SKY/WX    TMP DP  RH WIND       PRES   REMARKS
SAN JUAN LMM   PTCLDY    72  70  94 E6        30.08S                  
CEIBA          CLOUDY    73  70  88 E13G18    30.08S                  
$$

VIZ001>002-201100-
U.S. VIRGIN ISLANDS
  
CITY           SKY/WX    TMP DP  RH WIND       PRES   REMARKS
CHARLOTTE AMA  CLOUDY    73  70  88 NE15G26   30.06R                  
CHRISTIANSTED  MOCLDY    77  70  78 NE10      30.06R                  
$$

HOURLY WEATHER ROUNDUP FOR THE NEWS MEDIA
  
CITY           SKY/WX    TMP DP  RH WIND       PRES   REMARKS
ORLANDO        FAIR      67  66  97 E6        30.10F                  
NEW YORK       CLOUDY    27  12  53 NE6       30.62S WCI  20          
NEWARK         CLOUDY    28   8  43 N5        30.61S WCI  23          
CHICAGO        CLOUDY    29  23  78 E12       30.10F WCI  19          
HARTFORD       FAIR      18   8  65 W5        30.60R WCI  11          
BOSTON         MOCLDY    21   4  47 NW13      30.58R WCI   9          
DALLAS         CLOUDY    39  36  89 NW9       29.94S WCI  33          
PHILADELPHIA   CLOUDY    31  10  41 NE7       30.58F WCI  24          
LOS ANGELES    PTCLDY    43  34  70 E7        30.08F                  
WASHINGTON DC  CLOUDY    34  16  47 SE7       30.52S WCI  28